DELTA 1 DEB, 7056

Orbit data source: Space-Track

DELTA 1 DEB, 7056 is space debris in SSO originally from a launch on Tue, 06 Nov 1973 UTC launched from the Air Force Western Test Range (AFWTR). Debris objects in space refer to the collection of defunct objects orbiting the Earth. Examples of debris include non-operational satellites, rocket bodies, and fragments generated from explosions, collisions, or faulty payload assembly.

Loading next visibility...
Identifier
7056, 1973-086AY
Orbit
SSO
Country
Flag of USUS
Related business
Manufacturer
Unknown
Mission
Spacecraft
Bus & Motor
Unknown
Mass
Unknown
Launch date (UTC)
1973-11-06 (53 years ago)
Launch vehicle
Unknown
Launch site
Air Force Western Test Range (AFWTR)
Object type
Payload
Rocket body
Debris
Shape & HBR
Unknown shape, 0.2 m
Radar Cross Section
Medium (>0.1 m² and <1 m²)

Expand to show TLE details & history
Last TLE update: 2 days ago

TLE from 2 days ago
0 DELTA 1 DEB
1  7056U 73086AY  26262.29484431 -.00000023  00000-0  21113-3 0  9992
2  7056 102.7332 269.9343 0087650  13.9916 359.2481 12.24190615361642
Epoch: 2026-09-19T07:04Z
TLE epoch observation values (Epoch: 2026-09-19T07:04:34.548Z)
Latitude
12.86418°
Longitude
162.64134°
Altitude
1,506.391 km
Speed
7.144 km/s
True Right ascension
17h 47m 57s
True Declination
12° 47' 49"
Sunlit
Object was in daylight at epoch
Visualization orbit readout
Latitude
Unknown
Longitude
Unknown
Altitude
Unknown
Speed
Unknown
Apparent Right ascension
Unknown
Apparent Declination
Unknown
Sunlit
N/A
Visualization observer readout
Local Sidereal Time
16:17:05
Azimuth
Unknown
Elevation
Unknown
Doppler factor
Unknown
Orbital elements
Apogee altitude
1,641.663 km
Perigee altitude
1,502.298 km
Semi-major axis
7,950.118 km
Eccentricity
0.00877
Inclination
102.7332°
RAAN
269.9343°
Arg. of periapsis
13.9916°
True anomaly
359.23477°
Mean anomaly
359.2481°
Eccentric anomaly
359.24145°
Mean motion
3.06184 °/min
Orbital period
117.58 mins
BSTAR
0.00021113
Loading maneuver chart data...
Computing Atmospheric mass density...
Loading historical data...
Loading historical data...
Loading historical data...
Loading historical data...
Loading historical data...
Loading historical data...
Loading historical data...

Documentation

Showing up to 5 results
|